Location: Great Falls
(47.5000°N, 111.3000°W)
Time: 00:45:02
(UTC-07:00)

BlueWalker 3 - Visible Passes

Search period start: 08 March 2026 00:00
Search period end: 18 March 2026 01:00
Orbit: 451 x 458 km, 53.2° (Epoch: 7 March)

Date Brightness Start Highest point End Pass type
(mag) Time Alt. Az. Time Alt. Az. Time Alt. Az.
8 Mar 4.6 04:49:30 17° NE 04:49:30 17° NE 04:50:30 10° ENE visible
8 Mar 3.1 06:23:10 20° NW 06:25:03 32° N 06:28:19 10° ENE visible
9 Mar 3.0 05:48:21 30° NNW 05:48:51 31° N 05:52:06 10° ENE visible
10 Mar 3.6 05:13:31 27° NNE 05:13:31 27° NNE 05:15:54 10° ENE visible
10 Mar 2.5 06:47:12 11° WNW 06:50:36 48° NNE 06:54:05 10° E visible
11 Mar 4.7 04:38:43 16° NE 04:38:43 16° NE 04:39:40 10° ENE visible
11 Mar 2.7 06:12:23 21° NW 06:14:24 42° NNE 06:17:50 10° E visible
12 Mar 2.8 05:37:37 36° N 05:38:10 38° NNE 05:41:34 10° E visible
13 Mar 3.6 05:02:52 30° NE 05:02:52 30° NE 05:05:16 10° ENE visible
13 Mar 1.7 06:36:34 14° WNW 06:39:38 84° SSW 06:43:13 10° ESE visible
14 Mar 4.8 04:28:12 15° ENE 04:28:12 15° ENE 04:28:57 10° ENE visible
14 Mar 1.7 06:01:54 32° NW 06:03:26 80° NNE 06:07:02 10° ESE visible
15 Mar 2.0 05:27:20 65° NE 05:27:20 65° NE 05:30:47 10° ESE visible
15 Mar 3.0 07:01:25 10° W 07:04:25 25° SW 07:07:24 10° SSE visible
16 Mar 3.9 04:52:53 24° E 04:52:53 24° E 04:54:30 10° ESE visible
16 Mar 2.6 06:26:35 21° W 06:28:16 32° SW 06:31:30 10° SSE visible
17 Mar 2.2 05:52:18 40° SSW 05:52:18 40° SSW 05:55:29 10° SSE visible
